Location: Bégole
(43.1574°N, 0.3291°E)
Time: 13:18:16
(UTC+00:00)

Cosmos 1697 Rocket - Pass Details

Date: 02 March 2024
Orbit: 831 x 844 km, 71.0° (Epoch: 24 April)

Event Time Altitude Azimuth Distance (km) Brightness Sun altitude
Rises 18:07:43 0° 319° (NW) 3,409 6.4 -4.1°
Reaches altitude 10° 18:10:56 10° 301° (WNW) 2,469 6.1 -4.7°
Maximum altitude 18:14:33 18° 261° (W) 1,981 6.1 -5.4°
Drops below altitude 10° 18:18:09 10° 221° (SW) 2,457 5.8 -6.0°
Sets 18:21:22 0° 203° (SSW) 3,386 6.2 -6.6°
